Regional Weather Roundup
Issued by NWS

Home | Current Version | Previous Version | Graphics & Text | Print | Product List | Glossary On
Versions: 1 2 3 4 5 6 7 8 9 10 11 12 13 14 15 16 17 18 19 20 21 22 23 24 25 26 27 28 29 30 31 32 33 34 35 36 37 38 39 40 41 42 43 44 45 46 47 48 49 50
000
ASUS43 KMKX 300500
RWRWI

WISCONSIN REGIONAL WEATHER ROUNDUP
NATIONAL WEATHER SERVICE MILWAUKEE/SULLIVAN WI
1200 AM CDT THU MAR 30 2017

NOTE: "FAIR" INDICATES FEW OR NO CLOUDS BELOW 12,000 FEET WITH NO
SIGNIFICANT WEATHER AND/OR OBSTRUCTIONS TO VISIBILITY.

WIZ001-002-006>008-014>016-023>028-300600-
NORTHWEST WISCONSIN

CITY           SKY/WX    TMP DP  RH WIND       PRES   REMARKS
SUPERIOR ARPT  CLOUDY    33  31  94 NE12      30.17F WCI  24
ASHLAND        CLOUDY    32  29  88 E5        30.16F WCI  27
HAYWARD        CLOUDY    36  29  75 NE3       30.13F
SIREN          CLOUDY    38  31  74 CALM      30.13S
CUMBERLAND     CLOUDY    37  32  81 SE7       30.12S WCI  32
RICE LAKE      CLOUDY    41  34  75 CALM      30.13F
CHETEK         CLOUDY    40  35  81 SE5       30.12F
LADYSMITH      CLOUDY    40  31  69 E5        30.15F
EAU CLAIRE     CLOUDY    40  37  89 E9        30.10F WCI  34
MENOMONIE      CLOUDY    40  38  91 E10       30.09F WCI  34
NEW RICHMOND   CLOUDY    41  35  78 E9        30.11S
OSCEOLA        CLOUDY    42  37  80 E6        30.14S
$$

WIZ003>005-009-010-017-018-300600-
NORTH CENTRAL WISCONSIN

CITY           SKY/WX    TMP DP  RH WIND       PRES   REMARKS
MANITOWISH WTR CLOUDY    38  28  64 SE5       30.14F WCI  35
ARBOR VITAE    CLOUDY    39  28  63 SE8       30.14F WCI  34
WOODRUFF       CLOUDY    39  28  63 SE8       30.14F WCI  34
RHINELANDER    CLOUDY    37  27  67 E7        30.15F WCI  32
EAGLE RIVER    CLOUDY    37  24  61 SE9       30.15F WCI  30
LAND O LAKES   CLOUDY    37  26  63 SE6       30.18F WCI  32
PHILLIPS       MOCLDY    38  29  70 SE6       30.13F WCI  34
TOMAHAWK       CLOUDY    37  27  67 SE3       30.16F
MEDFORD        CLOUDY    34  31  87 E6        30.13F WCI  29
MERRILL        CLOUDY    36  31  82 E5        30.16F WCI  32
$$

WIZ029-030-035-036-043>047-300600-
CENTRAL WISCONSIN

CITY           SKY/WX    TMP DP  RH WIND       PRES   REMARKS
WAUSAU         CLOUDY    35  27  72 E10       30.12F WCI  27
MOSINEE        FLURRIES  32  32 100 E13       30.15F WCI  22
MARSHFIELD     MIX PCPN  35  32  88 E10       30.10F WCI  27
STEVENS POINT  MIX PCPN  32  32 100 NE9       30.15F WCI  24
WAUPACA        FLURRIES  36  33  90 NE8       30.16F WCI  29
WAUTOMA        CLOUDY    35  32  88 E13       30.12F WCI  26
WISC RAPIDS    LGT SNOW  34  34 100 E12       30.12F FOG     WCI  25
CAMP DOUGLAS   CLOUDY    37  32  81 E13       30.08F WCI  29
$$

WIZ011>013-019>022-031-037>040-048>050-300600-
NORTHEAST WISCONSIN

CITY           SKY/WX    TMP DP  RH WIND       PRES   REMARKS
ANTIGO         CLOUDY    34  25  70 E8        30.17F WCI  27
SHAWANO        DRIZZLE   36  31  82 NE6       30.17F WCI  32
OCONTO         CLOUDY    34  30  86 N5        30.20F WCI  30
STURGEON BAY   LGT RAIN  34  32  92 N3        30.19F
GREEN BAY      LGT RAIN  36  34  92 NE10      30.16F WCI  28
MANITOWOC      NOT AVBL
APPLETON       LGT RAIN  34  30  86 NE14      30.13F WCI  24
CLINTONVILLE   LGT RAIN  34  32  93 NE7       30.15F WCI  28
OSHKOSH        CLOUDY    37  31  78 NE13      30.12F WCI  29
$$

WIZ032>034-041-042-053>061-300600-
SOUTHWEST WISCONSIN

CITY           SKY/WX    TMP DP  RH WIND       PRES   REMARKS
LA CROSSE      CLOUDY    42  35  76 E12G21    30.06F
SPARTA         LGT RAIN  38  35  90 E10G21    30.09F WCI  30
VIROQUA        CLOUDY    37  34  89 E18       30.02F WCI  27
BOSCOBEL       CLOUDY    40  32  73 E12G21    30.02F WCI  33
PRAIRIE DU CHI CLOUDY    39  38  97 E15G25    30.00F WCI  30
PLATTEVILLE    CLOUDY    39  39  98 E22G32    29.97F WCI  29
$$

WIZ056-057-062-063-064-067-068-300600-
SOUTH CENTRAL WISCONSIN

CITY           SKY/WX    TMP DP  RH WIND       PRES   REMARKS
REEDSBURG      CLOUDY    37  33  87 NE8G17    30.06F WCI  31
BARABOO/DELLS  LGT RAIN  37  30  78 E12       30.09F WCI  29
LONE ROCK      NOT AVBL
MINERAL POINT  CLOUDY    37  37 100 E17G30    29.98F WCI  28
MADISON        LGT RAIN  38  36  92 NE13      30.06F FOG     WCI  30
MIDDLETON      CLOUDY    39  38  95 E12       30.08F WCI  32
WATERTOWN      CLOUDY    37  37  99 NE12G17   30.09F WCI  29
MONROE         DRIZZLE   37  36  93 NE17      30.01F WCI  28
JANESVILLE     LGT RAIN  41  41 100 E18       30.03F
$$

WIZ051-052-058>065-066-070>072-300600-
SOUTHEAST WISCONSIN

CITY           SKY/WX    TMP DP  RH WIND       PRES   REMARKS
MILWAUKEE      CLOUDY    40  36  86 NE14      30.09F WCI  32
WAUKESHA       CLOUDY    36  34  93 NE14      30.09F FOG     WCI  27
MILWAUKEE/TIMM CLOUDY    36  34  93 NE8       30.12F WCI  29
RACINE         LGT RAIN  41  36  82 E18G24    30.09F
KENOSHA        LGT RAIN  40  37  89 E18       30.06F WCI  31
FOND DU LAC    LGT RAIN  39  30  70 NE12      30.12F WCI  32
SHEBOYGAN      LGT RAIN  37  33  85 NE10      30.14F WCI  30
WEST BEND      RAIN      36  34  93 NE8       30.12F WCI  29
JUNEAU         CLOUDY    36  33  87 NE9       30.11F WCI  29
$$

LSZ147-162-300600-
LAKE SUPERIOR

STATION/POSITION TIME  TEMP    WIND        PRES    WAVE
                       AIR SEA DIR/SP/G            HT/PER
                 (UTC) (F)     (DEG/KT/KT) (MB)    (FT/S)
DEVILS ISLAND    0400   34      50/ 12/ 13 1023.2F
PORT WING        0440   34      50/ 12/ 15 1021.7F
SAXON HARBOR     0430   30     210/  1/  2 1021.0F
$$

LMZ867-665-643>646-300600-
LAKE MICHIGAN

STATION/POSITION TIME  TEMP    WIND        PRES    WAVE
                       AIR SEA DIR/SP/G            HT/PER
                 (UTC) (F)     (DEG/KT/KT) (MB)    (FT/S)
CHAMBERS ISLAND  0440   33      20/  4/  7 1022.4F
NORTHPORT PIER   0440   36      90/  8/ 11 1022.7F
SISTER BAY       0306   37      80/  7/ 11   N/A
KEWAUNEE LAKESHO 0430   36      30/  7/ 11 1021.7F
SHEBOYGAN LAKESH 0400   37      20/ 11/ 12 1022.1F
PORT WASHINGTON  0430   39      40/ 12/ 15 1021.0F
MILWAUKEE LAKESH 0430   38      30/ 15/ 16   N/A
KENOSHA   LAKESH 0400   40      60/ 18/ 21 1019.0
$$

TC  - TEMPERATURE IN CELSIUS
VSB - VISIBILITY IN STATUTE MILES
WCI - WIND CHILL INDEX
HX  - HEAT INDEX




USA.gov is the U.S. government's official web portal to all federal, state and local government web resources and services.